カタログに戻る

TITAN 3C TRANSTAGE DEB

運用中MEO
NORAD 38693·DEBRIS·🇺🇸 United States

打ち上げ Sep 26, 1968 から Cape Canaveral Space Force Station

Loading…

次のパス (今後24時間)

TLE

最新Source: Space-Track

元期: Sep 13, 2026, 16:02 UTC

1 38693U 68081T   26256.66809843 -.00000040  00000-0  00000-0 0  9992
2 38693   3.2338  64.2839 0116291 206.9051 152.8917  1.02822440 49532

AllMySatでTITAN 3C TRANSTAGE DEBをリアルタイム追跡

Download on the App Store